FW3241 Weather Reports


time (UTC)temp
C
wind
direction
speed
KPH
gust
KPH
rain 1hr
cm
rain 24hr
cm
rain mn
cm
humidity
%
barometer
mb
20260502203038 11 253 0.0 1.6 0.00 0.00 0.00 35 1013.7
20260502201538 12 253 0.0 3.2 0.00 0.00 0.00 32 1013.5
20260502200036 12 253 0.0 3.2 0.00 0.00 0.00 35 1013.5
20260502194538 12 253 0.0 3.2 0.00 0.00 0.00 32 1013.7
20260502193040 12 253 0.0 3.2 0.00 0.00 0.00 37 1013.7
20260502191535 11 253 1.6 4.8 0.00 0.00 0.00 39 1014.1
20260502190041 11 253 1.6 4.8 0.00 0.00 0.00 33 1014.2
20260502184553 11 252 0.0 3.2 0.00 0.00 0.00 35 1014.3
20260502183032 12 252 0.0 3.2 0.00 0.00 0.00 34 1014.2
20260502181532 12 251 0.0 4.8 0.00 0.00 0.00 36 1014.2
20260502163014 8 281 0.0 3.2 0.00 0.00 0.00 41 1014.9
20260502161513 8 280 3.2 9.7 0.00 0.00 0.00 46 1015.0
20260502151510 6 31 0.0 3.2 0.00 0.00 0.00 52 1015.2
20260502123106 4 49 0.0 0.0 0.00 0.00 0.00 66 1014.7
20260502121558 4 49 0.0 0.0 0.00 0.00 0.00 68 1014.3
20260502114600 4 49 0.0 0.0 0.00 0.00 0.00 68 1013.9
20260502113056 4 49 0.0 0.0 0.00 0.00 0.00 69 1014.0
20260502111556 5 49 0.0 0.0 0.00 0.00 0.00 69 1013.7
20260502110059 5 49 0.0 0.0 0.00 0.00 0.00 68 1013.5
20260502104555 5 49 0.0 0.0 0.00 0.00 0.00 68 1013.6
20260502103058 5 49 0.0 0.0 0.00 0.00 0.00 69 1013.4
20260502101616 5 49 0.0 0.0 0.00 0.00 0.00 69 1013.2
20260502100114 5 49 0.0 0.0 0.00 0.00 0.00 69 1013.3
20260502071533 6 49 0.0 1.6 0.00 0.00 0.00 67 1014.0
20260502070044 6 49 0.0 0.0 0.00 0.00 0.00 67 1014.1
20260502064530 6 49 0.0 0.0 0.00 0.00 0.00 67 1014.0
20260502063033 6 49 0.0 0.0 0.00 0.00 0.00 66 1014.0
20260502061529 6 49 0.0 0.0 0.00 0.00 0.00 65 1013.9
20260502060028 7 49 0.0 1.6 0.00 0.00 0.00 65 1014.1
20260502054524 7 49 0.0 0.0 0.00 0.00 0.00 65 1014.5
20260502053024 7 49 0.0 0.0 0.00 0.00 0.00 65 1014.5
20260502051527 7 49 0.0 1.6 0.00 0.00 0.00 63 1014.6
20260502050020 7 49 0.0 1.6 0.00 0.00 0.00 61 1014.7
20260502044519 8 49 0.0 0.0 0.00 0.00 0.00 59 1014.7
20260502043016 8 49 0.0 0.0 0.00 0.00 0.00 56 1014.6
20260502041513 8 49 0.0 1.6 0.00 0.00 0.00 53 1014.6
20260502040010 9 49 0.0 0.0 0.00 0.00 0.00 52 1014.6
20260502034509 9 49 0.0 0.0 0.00 0.00 0.00 50 1014.6
20260502033009 9 49 0.0 0.0 0.00 0.00 0.00 49 1014.8
20260502031508 9 49 0.0 0.0 0.00 0.00 0.00 51 1014.9
20260502030008 9 49 0.0 1.6 0.00 0.00 0.00 48 1015.2
20260502024523 9 49 0.0 0.0 0.00 0.00 0.00 48 1015.0
20260502023007 9 49 0.0 0.0 0.00 0.00 0.00 46 1015.2
20260502021507 9 49 0.0 1.6 0.00 0.00 0.00 45 1015.1
20260502020006 9 49 0.0 1.6 0.00 0.00 0.00 44 1015.0
20260502014519 9 49 0.0 1.6 0.00 0.00 0.00 43 1014.7
20260502013005 9 49 0.0 1.6 0.00 0.00 0.00 44 1014.7
20260502011506 10 49 0.0 3.2 0.00 0.00 0.00 43 1014.4
20260502010005 10 49 0.0 3.2 0.00 0.00 0.00 43 1014.1
20260502004504 10 49 0.0 3.2 0.00 0.00 0.00 42 1014.3
20260502003000 10 49 0.0 3.2 0.00 0.00 0.00 40 1014.0
20260502001501 10 49 1.6 4.8 0.00 0.00 0.00 39 1014.0
20260502000001 11 252 0.0 3.2 0.00 0.00 0.00 39 1013.8
20260501234601 11 252 0.0 1.6 0.00 0.00 0.00 39 1013.4
20260501233059 12 252 0.0 3.2 0.00 0.00 0.00 40 1013.1
20260501231603 12 252 0.0 1.6 0.00 0.00 0.00 42 1013.1
20260501230058 13 252 0.0 0.0 0.00 0.00 0.00 44 1012.8
20260501224601 13 252 0.0 3.2 0.00 0.00 0.00 43 1012.8
20260501223109 14 252 0.0 1.6 0.00 0.00 0.00 43 1013.2
20260501221558 14 252 0.0 1.6 0.00 0.00 0.00 44 1013.1
20260501220054 14 252 0.0 0.0 0.00 0.00 0.00 45 1013.5
20260501214554 15 252 0.0 4.8 0.00 0.00 0.00 46 1013.5
20260501213109 15 252 0.0 3.2 0.00 0.00 0.00 45 1013.2
20260501211551 15 252 1.6 4.8 0.00 0.00 0.00 45 1013.2
20260501210052 15 252 3.2 6.4 0.00 0.00 0.00 43 1013.2
20260501204550 15 250 3.2 8.0 0.00 0.00 0.00 37 1013.3